Flag for Austria Weather past 2 weeks in Leonding, Upper Austria, Austria

Now
61 °F

Passing clouds.


Feels Like: 61 °F
Forecast: 58 / 62 °F
Wind: 1 mph from North

Location: Linz / Hoersching-Flughafen

Current Time: Sep 30, 2014 at 10:34:18 PM

Latest Report: Sep 30, 2014 at 9:50 PM


Visibility: 4 mi

Pressure: 30.27 "Hg

Humidity: 94%

Dew point: 59 °F

Location of LeondingLocation

Historic Weather in Leonding — Graph

°F

Leonding temperature yesterday

Maximum temperature yesterday: 66 °F (at 3:50 PM)
Minimum temperature yesterday: 48 °F (at 3:20 AM)
Average temperature yesterday: 56 °F

Past Weeks' High & Low Weather Summary

 TemperatureHumidityPressure
High75 °F (Sep 17, 2:50 PM)100% (Sep 20, 3:50 AM)30.39 "Hg (Sep 20, 3:50 AM)
Low37 °F (Sep 24, 7:20 AM)41% (Sep 17, 3:20 PM)29.89 "Hg (Sep 21, 6:20 PM)
Average58 °F82%30.10 "Hg
* Reported Sep 15 9:20 PM — Sep 30 9:20 PM, Leonding, Weather by CustomWeather, © 2014

Note: Actual official high and low records may vary slightly from our data, if they occured in-between our weather recording intervals... More about our weather records

Advertising

Leonding weather history for previous 24 hours

 ConditionsComfort  
Time TempWeatherWind HumidityBarometerVisibility
9:20 PM
Sep 30
61 °FPassing clouds.1 mph94%30.27 "Hg5 mi
8:50 PM61 °FPassing clouds.2 mph94%30.27 "Hg6 mi
8:20 PM63 °FPartly cloudy.3 mph88%30.27 "Hg6 mi
7:50 PM63 °FPartly cloudy.2 mph88%30.27 "Hg6 mi
7:20 PM64 °FBroken clouds.1 mph83%30.27 "Hg6 mi
6:50 PM64 °FBroken clouds.2 mph83%30.27 "Hg6 mi
6:20 PM64 °FPartly sunny.2 mph88%30.27 "Hg6 mi
5:50 PM66 °FPartly sunny.1 mph78%30.27 "Hg6 mi
5:20 PM66 °FPartly sunny.1 mph78%30.27 "Hg6 mi
4:50 PM66 °FPartly sunny.1 mph78%30.27 "Hg6 mi
4:20 PM68 °FPartly sunny.3 mph73%30.27 "Hg6 mi
3:50 PM66 °FScattered clouds.3 mph78%30.27 "Hg6 mi
3:20 PM66 °FScattered clouds.1 mph78%30.27 "Hg6 mi
2:50 PM64 °FPartly sunny.1 mph78%30.30 "Hg6 mi
2:20 PM63 °FScattered clouds.3 mph83%30.30 "Hg4 mi
1:50 PM61 °FPartly sunny.2 mph83%30.30 "Hg4 mi
1:20 PM59 °FFog.2 mph94%30.30 "Hg3 mi
12:50 PM59 °FFog.2 mph94%30.30 "Hg3 mi
12:20 PM59 °FFog.2 mph88%30.30 "Hg3 mi
11:50 AM57 °FFog.2 mph94%30.33 "Hg3 mi
11:20 AM57 °FFog.2 mph94%30.33 "Hg3 mi
10:50 AM57 °FFog.2 mph94%30.33 "Hg3 mi
10:20 AM57 °FFog.2 mph94%30.33 "Hg3 mi
9:50 AM57 °FFog.2 mph94%30.33 "Hg2 mi
9:20 AM55 °FFog.2 mph100%30.33 "Hg1 mi
8:50 AM55 °FFog.2 mph100%30.33 "Hg1 mi
8:20 AM55 °FFog.2 mph94%30.30 "Hg1 mi
7:50 AM55 °FFog.5 mph94%30.30 "Hg1 mi
7:20 AM55 °FFog.5 mph100%30.30 "Hg1 mi
6:50 AM55 °FFog.2 mph100%30.30 "Hg1 mi
6:20 AM55 °FFog.1 mph100%30.30 "Hg1 mi
5:50 AM55 °FFog.2 mph94%30.30 "Hg1 mi
5:20 AM55 °FFog.2 mph94%30.30 "Hg2 mi
4:50 AM55 °FFog.2 mph94%30.30 "Hg1 mi
4:20 AM55 °FFog.1 mph94%30.30 "Hg1 mi
3:50 AM55 °FPassing clouds.1 mph94%30.30 "Hg1 mi
3:20 AM55 °FCool.1 mph100%30.30 "Hg2 mi
2:50 AM55 °FFog.1 mph94%30.30 "Hg1 mi
2:20 AM54 °FFog.1 mph100%30.30 "Hg1 mi
1:50 AM54 °FFog.2 mph100%30.30 "Hg1 mi
1:20 AM54 °FFog.5 mph100%30.30 "Hg1 mi
12:50 AM54 °FFog.5 mph94%30.30 "Hg2 mi
12:20 AM54 °FFog.3 mph94%30.30 "Hg2 mi
11:50 PM
Sep 29
54 °FFog.3 mph94%30.30 "Hg2 mi
11:20 PM54 °FSleet. Overcast.2 mph100%30.30 "Hg2 mi
10:50 PM54 °FFog.2 mph94%30.30 "Hg3 mi
10:20 PM55 °FPassing clouds.1 mph94%30.30 "Hg4 mi
Weather by CustomWeather, © 2014

See weather overviewHow to use our weather pages